Beaufort, NC

1:14 AM EST on February 09, 2016 (GMT -0500)
Smith

Weather History for KMRH - November, 2011

Change the Weather History Date:

Monday, November 21, 2011

  Actual Average Record
Temperature  
Mean Temperature 63 °F -  
Max Temperature 69 °F 65 °F 79 °F (1985)
Min Temperature 57 °F 44 °F 26 °F (1968)
Degree Days  
Heating Degree Days 2    
Growing Degree Days 13 (Base 50)    
Moisture  
Dew Point 61 °F    
Average Humidity 90    
Maximum Humidity 100    
Minimum Humidity 78    
Precipitation  
Precipitation 0.00 in - - ()
Sea Level Pressure  
Sea Level Pressure 30.22 in    
Wind  
Wind Speed 6 mph (SW)    
Max Wind Speed 10 mph    
Max Gust Speed -    
Visibility 7 miles    
Events      
Averages and records for this station are not official NWS values.
T = Trace of Precipitation, MM = Missing Value Source: NWS Daily Summary

Daily Weather History Graph

Daily Weather History Graph

Search for Another Location

Airport or City:

Trip Planner

Search our weather history database for the weather conditions in past years. The results will help you decide how hot, cold, wet, or windy it might be!

Date:

Astronomy

Nov. 21, 2011 Rise Set
Actual Time 6:46 AM EST 4:58 PM EST
Civil Twilight 6:18 AM EST 5:25 PM EST
Nautical Twilight 5:48 AM EST 5:56 PM EST
Astronomical Twilight 5:18 AM EST 6:26 PM EST
Moon 2:30 AM EST (11/21) 2:12 PM EST (11/21)
Length of Visible Light 11h 06m
Length of Day
10h 12m
Waning Crescent, 18% of the Moon is Illuminated
Nov 21
Waning Crescent
Nov 25
New
Dec 2
First Quarter
Dec 10
Full
Dec 17
Last Quarter

Hourly Weather History & Observations

Time (EST) Temp. Dew Point Humidity Pressure Visibility Wind Dir Wind Speed Gust Speed Precip Events Conditions
12:56 AM 64.0 °F 60.1 °F 87% 30.25 in 10.0 mi South 8.1 mph - N/A   Scattered Clouds
1:56 AM 64.9 °F 60.1 °F 84% 30.24 in 10.0 mi SSW 10.4 mph - N/A   Mostly Cloudy
2:56 AM 64.9 °F 60.1 °F 84% 30.23 in 10.0 mi SSW 8.1 mph - N/A   Mostly Cloudy
3:56 AM 66.0 °F 61.0 °F 84% 30.23 in 10.0 mi SSW 8.1 mph - N/A   Overcast
4:56 AM 66.0 °F 61.0 °F 84% 30.24 in 10.0 mi WSW 5.8 mph - N/A   Overcast
5:56 AM 64.9 °F 61.0 °F 87% 30.25 in 10.0 mi WSW 5.8 mph - N/A   Mostly Cloudy
6:56 AM 64.0 °F 61.0 °F 90% 30.25 in 10.0 mi SW 6.9 mph - N/A   Overcast
7:56 AM 64.9 °F 62.1 °F 90% 30.27 in 10.0 mi WSW 4.6 mph - N/A   Mostly Cloudy
8:56 AM 66.0 °F 62.1 °F 87% 30.28 in 10.0 mi WSW 6.9 mph - N/A   Overcast
9:56 AM 66.9 °F 62.1 °F 84% 30.28 in 10.0 mi WSW 8.1 mph - N/A   Overcast
10:56 AM 69.1 °F 62.1 °F 78% 30.26 in 10.0 mi SW 10.4 mph - N/A   Overcast
11:56 AM 69.1 °F 63.0 °F 81% 30.23 in 10.0 mi SW 10.4 mph - N/A   Overcast
12:56 PM 69.1 °F 63.0 °F 81% 30.20 in 10.0 mi WSW 9.2 mph - N/A   Overcast
1:56 PM 69.1 °F 63.0 °F 81% 30.17 in 10.0 mi SW 10.4 mph - N/A   Clear
2:56 PM 69.1 °F 64.0 °F 84% 30.16 in 10.0 mi WSW 8.1 mph - N/A   Clear
3:56 PM 66.9 °F 63.0 °F 87% 30.18 in 9.0 mi WSW 6.9 mph - N/A   Scattered Clouds
4:56 PM 66.0 °F 63.0 °F 90% 30.19 in 8.0 mi West 5.8 mph - N/A   Clear
5:56 PM 63.0 °F 61.0 °F 93% 30.21 in 9.0 mi Calm Calm - N/A   Clear
6:56 PM 62.1 °F 61.0 °F 96% 30.21 in 8.0 mi Calm Calm - N/A   Clear
7:56 PM 60.1 °F 60.1 °F 100% 30.21 in 5.0 mi Calm Calm - N/A   Clear
8:56 PM 57.9 °F 57.9 °F 100% 30.21 in 4.0 mi Calm Calm - N/A   Clear
9:56 PM 59.0 °F 59.0 °F 100% 30.23 in 3.0 mi Calm Calm - N/A   Partly Cloudy
10:22 PM 60.8 °F 59.0 °F 94% 30.21 in 2.0 mi East 4.6 mph - N/A   Clear
10:32 PM 60.8 °F 59.0 °F 94% 30.21 in 5.0 mi Calm Calm - N/A   Clear
10:56 PM 61.0 °F 60.1 °F 97% 30.22 in 5.0 mi NE 3.5 mph - N/A   Clear
11:04 PM 60.8 °F 60.8 °F 100% 30.21 in 2.5 mi NE 3.5 mph - N/A   Scattered Clouds
11:08 PM 60.8 °F 60.8 °F 100% 30.21 in 1.8 mi Calm Calm - N/A   Mostly Cloudy
11:19 PM 60.8 °F 59.0 °F 94% 30.21 in 0.8 mi Calm Calm - N/A   Mist
11:56 PM 57.9 °F 57.9 °F 100% 30.21 in 1.2 mi Calm Calm - N/A   Scattered Clouds